ZHONGXING-12

Last updated on Sun Jul 06 2025 00:02:44 GMT+0000 (Coordinated Universal Time)

1 39017U 12067A 25186.58214289 -.00000191 00000+0 00000+0 0 9997 2 39017 0.0418 100.4975 0002779 1.4314 118.9569 1.00271808 46038
UTC large
Height (km)
Speed (km/s)
/
Latitude / Longitude
Inclination (degrees)
Orbital Period (minutes)
Azimuth
Elevation
Range (km)
Doppler Factor

Next 0 passes for location: London (51.5072 / 0.1276)

Sorry there are no passes over London.